Simultaneous Nadir Overpasses (SNOs) Predictions

Prediction of SNOs between GOES-15 and METOP-B Satellite Orbit:

Table of predicted SNOs for the next 14.0 days since TLE Epoch: 3/7/2025
Index Date Time (GOES-15) GOES-15 Lat,Lon METOP-B Lat,Lon Distance(km) Time Diff (sec)
1 03/09/2025 05:19:08 -0.04, 61.33 0.73, 57.82 399.91 80
2 03/10/2025 05:01:11 -0.03, 61.33 -0.38, 62.79 167.44 80
3 03/11/2025 17:20:16 0.04, 61.28 -0.65, 58.16 355.59 80
4 03/12/2025 16:56:59 0.03, 61.28 0.47, 63.13 211.29 80
5 03/14/2025 05:15:54 -0.04, 61.32 0.60, 58.54 317.45 80
6 03/15/2025 04:57:58 -0.04, 61.32 -0.53, 63.51 249.96 80
7 03/16/2025 17:17:02 0.05, 61.27 -0.49, 58.88 272.68 80
8 03/17/2025 16:53:46 0.04, 61.28 0.64, 63.85 293.82 80
9 03/19/2025 05:12:41 -0.05, 61.33 0.42, 59.26 236.49 80
10 03/20/2025 04:54:45 -0.05, 61.34 -0.71, 64.23 330.12 80
11 03/21/2025 17:13:49 0.06, 61.29 -0.29, 59.59 193.24 80
